LQSat
1 40958U 15057A 20212.45375331 -.00000011 00000-0 59016-5 0 9991
2 40958 097.8500 274.4216 0018447 016.4807 343.6998 14.73125739258844
ATHENOXAT-1
1 41168U 15077C 20212.04776817 .00001592 00000-0 47432-4 0 9998
2 41168 14.9883 108.8813 0011234 0.9595 359.0747 15.14445557255810
ChubuSat-2
1 41338U 16012B 20212.01530315 .00000245 00000-0 12213-4 0 9998
2 41338 031.0040 075.8706 0013773 179.1837 180.8822 15.00309686244130
ChubuSat-3
1 41339U 16012C 20212.73705490 .00000257 00000-0 13116-4 0 9992
2 41339 31.0133 68.8666 0013261 194.0486 165.9787 15.00473381244249
Horyu-4
1 41340U 16012D 20211.91147338 .00000349 00000-0 19631-4 0 9994
2 41340 31.0060 61.3941 0014046 210.9485 149.0323 15.01524701244268
OUFTI-1
1 41458U 16025C 20212.57805222 .00001185 00000-0 62362-4 0 9992
2 41458 098.1090 325.4444 0164427 064.7826 297.0345 15.06989230233971
e-st@r-II
1 41459U 16025D 20212.76915987 .00001219 00000-0 64510-4 0 9999
2 41459 98.1084 325.0251 0165941 66.3086 295.5452 15.06544150233964
AAUSAT4
1 41460U 16025E 20212.77305554 .00001628 00000-0 82283-4 0 9996
2 41460 98.1070 327.5141 0154399 54.5758 306.9773 15.08900256234178
LO-87
1 41557U 16033B 20212.79529550 .00000833 00000-0 33104-4 0 9993
2 41557 97.4040 302.7405 0011938 297.9051 62.0979 15.28101024232390
NuSat2
1 41558U 16033C 20212.83515829 .00000938 00000-0 34788-4 0 9998
2 41558 97.4099 305.2459 0010927 294.3073 65.7026 15.30095400232525
Lapan A3
1 41603U 16040E 20212.79750803 .00000210 00000-0 12884-4 0 9991
2 41603 97.3056 264.9770 0014799 55.2404 56.9109 15.19854759227725
Swayam
1 41607U 16040J 20212.72427277 .00001135 00000-0 49154-4 0 9991
2 41607 97.3146 271.0693 0014120 40.7880 319.4412 15.24340598228011
Pratham
1 41783U 16059A 20212.42178925 .00000021 00000-0 13268-4 0 9996
2 41783 98.0134 266.6663 0033632 178.5637 181.5667 14.63065906205167
AlSat 1N
1 41789U 16059G 20212.74381167 .00000028 00000-0 14151-4 0 9990
2 41789 98.0172 269.8991 0028733 164.6538 195.5538 14.64332087205368
ScatSat
1 41790U 16059H 20212.70552625 -.00000007 00000-0 89984-5 0 9992
2 41790 98.1583 251.6982 0006406 138.3204 221.8478 14.50923760203494
TY-1
1 41844U 16066D 20212.81195093 .00000623 00000-0 27856-4 0 9996
2 41844 97.4030 220.4947 0014646 184.7007 277.8316 15.24908646206874
Pegasus-1
1 41846U 16066F 20212.43699469 .00000209 00000-0 40934-4 0 9994
2 41846 098.6584 262.9348 0368011 105.1891 259.0298 14.37793912195144
CAS-2T
1 41847U 16066G 20212.41543485 .00000047 00000-0 16499-4 0 9998
2 41847 98.6508 263.3562 0366807 100.9048 263.3632 14.38080923195593
EO-88
1 42017U 17008BX 20212.41848986 .00001157 00000-0 46943-4 0 9999
2 42017 97.3575 279.3509 0006805 155.9401 204.2157 15.26595012192101
CAS-4B
1 42759U 17034B 20212.88686865 .00000242 00000-0 28170-4 0 9994
2 42759 43.0182 148.4137 0012357 303.0974 161.1590 15.09851538172535
CAS-4A
1 42761U 17034D 20212.89544642 .00000180 00000-0 24388-4 0 9992
2 42761 43.0173 147.6373 0012707 304.0349 162.3243 15.09929676172534
UCLSat
1 42765U 17036A 20212.24171503 .00000846 00000-0 38193-4 0 9997
2 42765 97.2978 265.3288 0009859 229.4363 130.6016 15.23601684172500
NIUSat
1 42766U 17036B 20212.73618679 .00000674 00000-0 32631-4 0 9992
2 42766 97.2972 263.1620 0014181 223.1541 136.8584 15.21782025172273
LituanicaSAT 2
1 42768U 17036D 20212.39967112 .00001527 00000-0 65434-4 0 9990
2 42768 097.3035 265.5235 0013460 218.8146 141.2126 15.24202473172386
Aalto 1
1 42775U 17036L 20212.78244282 .00000540 00000-0 26676-4 0 9996
2 42775 97.2951 263.5489 0012600 221.8365 138.1909 15.21893372172263
URSA MAIOR
1 42776U 17036M 20212.70073785 .00000590 00000-0 28724-4 0 9998
2 42776 97.2964 263.7729 0012429 221.6698 138.3593 15.22080844172267
Max Valier Sat
1 42778U 17036P 20212.45269105 .00000639 00000-0 30338-4 0 9993
2 42778 97.3019 264.8934 0010900 224.9083 135.1273 15.22680913172271
Pegasus
1 42784U 17036V 20212.27577057 .00000800 00000-0 36615-4 0 9992
2 42784 97.2982 265.0341 0010432 230.8976 129.1334 15.23288618172298
NUDATSat
1 42787U 17036Y 20212.62363109 .00001107 00000-0 47672-4 0 9991
2 42787 097.3026 266.8682 0009412 230.6300 129.4105 15.24632767172279
SUCHAI 1
1 42788U 17036Z 20212.67836162 .00000964 00000-0 42801-4 0 9990
2 42788 97.2990 266.0544 0010034 226.9059 133.1339 15.23853390172467
SKCUBE
1 42789U 17036AA 20212.40064465 .00000887 00000-0 39816-4 0 9997
2 42789 097.2985 265.6234 0009904 228.3467 131.6923 15.23688777172339
VZLUSAT 1
1 42790U 17036AB 20212.41613248 .00001253 00000-0 53606-4 0 9990
2 42790 097.3011 266.6613 0009465 224.9558 135.0915 15.24619164172399
VENTA 1
1 42791U 17036AC 20212.11252412 .00000882 00000-0 39649-4 0 9998
2 42791 097.2983 265.3831 0009524 229.9606 130.0797 15.23669047172285
Robusta 1B
1 42792U 17036AD 20212.41475654 .00000974 00000-0 43208-4 0 9995
2 42792 97.2988 265.9019 0009476 228.3916 131.6511 15.23881572172367
D-SAT
1 42794U 17036AF 20212.72011900 .00000091 00000-0 13401-4 0 9993
2 42794 97.4910 243.2301 0125113 220.0379 139.1568 14.91296709169141
TechnoSat
1 42829U 17042E 20212.63343958 .00000078 00000-0 13190-4 0 9990
2 42829 97.5143 92.3729 0015199 136.3097 223.9328 14.91115064165724
QIKCOM-1
1 42983U 98067NF 20212.75701348 .00003061 00000-0 40584-4 0 9993
2 42983 51.6389 87.1657 0003304 210.4530 149.6273 15.61837307157050
AO-91
1 43017U 17073E 20212.48593344 .00000223 00000-0 23448-4 0 9992
2 43017 97.7203 123.0614 0255312 270.1866 87.0095 14.78980933145528
EcAMSat
1 43019U 98067NG 20212.75973086 .00006529 00000-0 65847-4 0 9995
2 43019 51.6412 71.5183 0003393 199.4375 160.6492 15.66798895239588
PICSAT
1 43132U 18004X 20212.43930347 .00000930 00000-0 40749-4 0 9996
2 43132 097.4453 283.5147 0007839 260.6013 099.4339 15.24500992141608
AO-92
1 43137U 18004AC 20212.42056824 .00000709 00000-0 32032-4 0 9999
2 43137 97.4438 283.2879 0007449 263.4063 96.6326 15.24188902141583
TianYi 2
1 43155U 18008A 20212.83822156 .00000334 00000-0 23307-4 0 9996
2 43155 97.4443 280.8193 0017561 4.4685 102.5015 15.11682790139477
Zhou Enlai
1 43156U 18008B 20212.81589598 .00000531 00000-0 35317-4 0 9998
2 43156 97.4490 280.6441 0014875 4.2041 105.8408 15.11231674139421
TianYi 6
1 43158U 18008D 20212.71622375 .00000660 00000-0 43466-4 0 9997
2 43158 97.4441 279.5513 0014005 3.2547 114.9913 15.10766638139357
S-Net G
1 43186U 18014G 20212.49979849 .00000604 00000-0 57655-4 0 9994
2 43186 097.6913 119.6352 0012849 081.7009 278.5669 14.96829067136134
S-Net H
1 43187U 18014H 20212.49962783 .00000604 00000-0 57704-4 0 9999
2 43187 97.6911 119.6122 0012850 81.6687 278.5991 14.96828789136139
S-Net J
1 43188U 18014J 20212.70005026 .00000593 00000-0 56745-4 0 9993
2 43188 97.6913 119.8406 0012840 81.1402 279.1273 14.96828808136163
S-Net K
1 43189U 18014K 20212.49994181 .00000595 00000-0 56909-4 0 9993
2 43189 97.6910 119.6075 0012842 81.6564 278.6113 14.96828091134683
FMN 1
1 43192U 18015A 20212.82494359 .00001530 00000-0 62736-4 0 9992
2 43192 97.4486 342.1215 0014045 299.2416 214.5788 15.25741403138519
Shaonian Xing
1 43199U 18015H 20212.87345877 .00001077 00000-0 44820-4 0 9994
2 43199 97.4276 340.3262 0015343 310.1621 167.3270 15.25866732138589
UBAKUSAT
1 43467U 98067NQ 20212.58427483 .00029200 00000-0 17577-3 0 9995
2 43467 51.6355 59.4349 0001380 196.5969 163.4986 15.77454351126910
EnduroSat One
1 43551U 98067NZ 20212.84439040 .00061546 00000-0 24701-3 0 9996
2 43551 51.6327 52.8146 0003272 253.0304 107.0341 15.85863991117258
